Location: *
(40.7873°S, 98.7174°E)
Time: 21:34:32
(UTC+00:00)

Cosmos 1153 Rocket - Pass Details

Date: 07 October 2022
Orbit: 953 x 1007 km, 82.9° (Epoch: 05 December)

Event Time Altitude Azimuth Distance (km) Brightness Sun altitude
Rises 20:21:58 0° 197° (SSW) 3,681 7.7 -26.5°
Reaches altitude 10° 20:24:44 10° 207° (SSW) 2,722 6.9 -26.0°
Enters shadow 20:28:19 27° 236° (SW) 1,760 5.6 -25.5°
